User: anonymous   Login
Location: Cherry Road
(34.5193°N, 112.0852°W)
Time: 23:33:13
(UTC-07:00)
Language:

Hubble Space Telescope - Orbit

View from above orbital plane
View from above orbital plane
View from above satellite
View from above satellite

Ground track
Ground track

The orbit data is extracted from the following two-line orbital elements,

1 20580U 90037B   15027.39898721  .00002429  00000-0  14803-3 0  2096
2 20580 028.4717 002.0423 0003006 163.4389 330.8703 15.06689796158555
Epoch (UTC): 27 January 2015 09:34:32
Eccentricity: 0.0003006
inclination: 28.4717°
perigee height: 544 km
apogee height: 548 km
right ascension of ascending node: 2.0423°
argument of perigee: 163.4389°
revolutions per day: 15.06689796
mean anomaly at epoch: 330.8703°
orbit number at epoch: 15855

The dashed part of the orbit path shows where the satellite is in the earth's shadow,  

DLR